Theta_e
321 318 316 314 313 314 314 316 313 316 315 324 327 328 330 333 333 333 332 333 335 335 336 336 337 338 339 339 342 343 344 342 343 344 345 345 346 347 349 350 348 347 345 345
316 314 315 313 316 315 315 316 317 317 318 329 329 330 330 330 330 330 332 334 334 334 334 335 338 339 341 342 345 345 345 343 343 342 341 342 343 344 345 346 347 348 343 344
312 315 313 311 316 317 318 319 319 316 323 328 325 326 328 329 330 330 332 333 334 334 335 338 337 340 340 341 343 342 339 338 338 339 339 339 341 341 341 342 345 344 343 343
313 315 302 315 321 320 318 320 322 322 325 328 326 328 329 331 331 331 332 333 336 338 338 339 340 341 341 338 337 336 336 336 338 338 338 339 340 340 340 339 340 341 342 343
311 308 313 316 318 318 319 319 323 324 325 326 326 327 328 333 334 334 335 337 338 337 337 340 339 338 336 335 335 335 335 335 336 337 337 337 336 337 338 338 338 338 340 342
312 309 308 318 323 325 324 316 324 326 325 325 326 320 326 334 335 335 335 338 336 336 336 336 336 336 335 334 335 334 334 335 336 335 335 332 333 331 332 334 332 332 333 335
316 312 317 323 324 326 314 318 324 326 326 327 324 328 334 335 335 335 337 336 337 335 333 334 336 336 334 334 333 334 334 332 331 330 330 331 331 333 332 334 332 333 333 335
317 314 310 326 324 320 327 329 327 327 327 328 329 331 333 334 335 334 334 334 333 332 331 333 336 334 332 332 332 331 331 329 327 328 326 327 331 333 332 330 330 333 331 326
320 320 325 328 329 329 330 328 328 328 328 330 330 330 332 333 334 334 333 334 331 331 331 333 334 333 330 329 329 328 329 328 326 326 325 329 328 330 329 332 328 325 319 315
321 324 324 326 328 330 331 330 331 332 332 329 327 329 330 333 334 333 333 330 331 331 331 331 330 330 328 327 326 326 325 325 326 323 322 326 325 325 324 325 318 316 314 311
322 324 325 325 328 330 331 332 330 330 329 328 329 330 332 332 332 332 332 331 332 332 330 326 329 327 324 324 324 322 322 323 322 321 322 322 322 322 320 323 313 312 311 307
318 329 326 328 330 331 330 328 330 330 329 330 330 330 331 331 333 333 331 332 332 331 329 327 327 324 323 323 323 322 320 320 319 318 319 316 315 318 315 311 308 304 302 302
325 330 329 331 333 332 330 331 331 331 332 329 330 330 329 331 332 325 332 331 330 328 327 327 325 322 321 321 321 320 318 317 319 316 313 312 313 313 312 315 309 305 302 301
330 330 328 330 329 332 332 331 328 330 330 329 329 330 330 330 331 331 330 329 327 326 325 325 323 321 320 319 318 317 316 309 316 314 312 312 312 313 311 309 308 309 307 303
330 329 330 331 331 330 330 328 326 326 327 328 330 330 331 330 331 329 329 327 326 324 323 322 322 321 321 318 316 314 314 311 313 314 313 311 312 313 310 308 308 307 308 305
328 329 329 328 328 327 327 326 326 325 326 327 328 328 329 331 330 329 327 324 322 319 320 321 320 321 321 317 315 314 313 310 311 312 311 310 311 311 312 311 311 307 303 302
326 325 327 326 326 326 326 326 326 326 326 327 327 328 329 329 328 328 324 321 322 320 321 319 318 321 320 316 314 313 313 313 312 312 311 310 309 308 308 309 308 308 307 303
331 329 329 328 327 326 326 326 325 326 327 328 330 331 330 327 325 325 321 321 321 321 319 318 318 320 319 316 315 314 313 313 312 311 311 310 309 309 307 307 308 307 307 306
329 328 328 328 328 327 326 326 327 329 330 330 329 327 327 325 322 320 321 321 319 318 318 319 315 317 317 315 314 315 313 312 312 311 311 308 309 309 308 307 307 307 307 307
327 328 328 328 327 326 326 328 329 328 330 329 327 325 324 322 321 321 323 320 320 321 323 322 320 318 317 318 315 315 313 312 311 311 310 310 309 309 309 303 306 307 307 307
327 327 327 327 327 327 328 329 328 326 328 327 326 325 323 322 324 322 319 316 322 320 316 319 323 318 316 316 313 312 311 311 309 308 309 308 308 308 308 309 308 308 307 307
327 326 326 327 326 326 328 329 327 327 327 326 325 324 321 317 317 318 316 313 314 308 314 317 316 311 313 310 314 311 312 312 311 309 307 307 307 306 306 306 306 307 307 307
328 327 327 327 326 326 327 326 327 326 324 322 320 317 313 312 312 310 309 313 312 310 313 313 302 309 310 314 315 313 312 310 309 309 308 308 309 308 307 306 306 306 306 307
327 327 327 327 327 325 323 324 324 324 322 321 317 317 316 312 312 313 314 309 307 307 311 308 305 308 306 313 313 312 312 312 310 310 310 303 308 309 307 308 307 306 305 303
327 325 324 324 324 322 323 323 321 321 319 317 317 317 316 316 313 313 314 313 307 309 311 307 307 307 312 312 311 309 308 308 307 308 308 307 308 309 306 305 303 305 307 305
324 321 322 323 323 322 321 320 317 317 316 314 314 315 317 317 316 314 315 311 313 309 311 311 311 310 310 310 309 309 309 309 310 309 307 309 309 309 306 305 307 306 305 305
322 312 318 319 320 320 319 317 316 315 314 315 315 316 317 318 316 311 308 312 312 311 310 310 311 309 310 309 309 309 310 310 306 309 309 309 310 310 309 307 306 305 305 305
Wind_Speed
10 3 2 3 10 11 11 4 7 9 4 14 12 12 13 12 11 10 10 9 9 8 6 6 7 6 7 7 7 8 9 11 12 13 14 15 15 15 15 14 14 15 15 15
2 4 4 6 5 6 4 1 1 3 7 11 12 11 11 10 10 9 8 7 7 5 4 5 6 7 7 8 9 10 12 13 13 14 14 15 15 16 15 16 15 13 15 16
6 9 4 9 7 5 5 2 2 4 9 12 14 13 12 10 7 7 7 6 4 3 5 6 6 6 9 9 11 11 13 13 13 14 15 15 16 16 16 15 15 15 15 16
6 4 3 5 0 1 2 1 2 4 10 12 12 10 8 6 7 6 5 3 2 3 5 6 8 9 10 12 11 12 13 13 13 14 15 15 15 15 15 15 15 15 16 17
2 3 10 9 5 7 9 8 5 6 10 11 10 9 7 6 3 4 3 1 2 3 5 6 8 9 10 12 12 12 13 13 14 15 16 16 16 15 16 15 16 16 14 17
15 20 15 5 9 4 2 7 7 11 13 14 13 9 7 9 7 5 3 2 4 5 6 7 9 11 12 12 11 12 13 14 14 14 15 15 12 12 12 12 13 12 14 14
11 10 6 5 7 5 7 5 9 11 12 12 8 6 10 10 6 4 3 2 3 4 7 8 9 11 11 11 12 13 14 14 13 13 12 13 14 13 13 12 11 12 11 13
9 12 6 6 8 4 6 7 9 11 10 9 7 8 8 8 6 4 3 2 4 6 8 8 10 10 11 12 12 13 12 12 11 10 12 10 12 13 10 10 12 13 14 11
6 7 4 4 6 4 6 10 10 10 10 8 8 8 7 6 5 4 2 3 6 7 8 9 11 11 11 12 12 13 13 12 10 12 12 11 13 14 12 13 12 12 9 10
4 5 4 4 5 7 10 11 11 10 9 7 5 5 5 5 6 4 3 5 7 8 9 10 10 10 10 12 12 13 12 12 11 11 12 12 10 10 11 10 10 9 9 11
5 3 3 5 9 9 11 11 11 8 6 5 5 4 5 6 5 3 3 5 6 7 8 8 8 10 11 12 13 13 12 11 12 10 11 11 11 10 9 10 8 8 9 10
2 11 7 13 12 13 12 11 10 8 7 5 3 5 4 5 4 2 4 5 6 6 6 7 9 9 11 12 12 12 12 10 9 8 10 10 10 11 7 7 10 8 8 10
4 4 3 14 14 12 12 10 8 7 7 7 5 4 2 5 4 3 4 5 6 7 6 7 7 9 10 11 12 12 11 11 9 10 9 10 9 9 11 11 9 9 11 15
6 11 12 16 13 12 12 12 10 9 7 5 5 2 3 5 5 4 5 5 6 6 6 6 7 9 10 11 11 11 11 5 8 8 8 9 9 9 9 10 12 14 13 15
11 4 13 13 15 14 13 11 9 7 6 5 2 2 2 2 2 5 5 6 5 5 6 6 7 8 9 10 11 11 9 10 10 7 6 6 8 9 8 9 10 10 12 14
9 11 16 16 15 13 11 8 6 5 3 2 1 3 4 3 4 5 5 5 5 6 5 6 7 7 7 9 10 9 8 9 10 9 9 10 8 8 8 8 9 10 11 14
16 16 16 15 13 11 8 6 5 3 3 3 5 5 4 5 5 2 4 4 4 4 4 3 6 5 6 8 9 8 7 8 7 9 9 9 10 10 10 9 9 9 8 9
9 12 13 13 12 10 8 6 4 4 4 5 5 3 2 3 2 3 4 3 2 1 3 5 6 6 5 7 8 6 7 8 9 9 9 9 9 9 9 10 10 10 10 8
13 13 12 11 9 8 7 6 6 5 5 3 4 4 4 4 4 4 3 1 2 6 4 4 4 7 4 6 7 6 6 8 8 8 9 8 9 9 9 10 10 10 10 10
14 12 12 10 7 6 6 6 5 5 5 6 7 5 5 5 5 3 2 5 4 5 7 6 7 7 5 3 5 8 7 8 9 9 7 8 8 8 8 7 8 10 10 10
13 11 10 9 8 6 6 6 6 6 7 6 6 6 5 5 2 4 5 3 6 11 10 10 8 7 6 3 6 7 5 8 7 7 9 8 9 9 9 9 9 9 9 9
10 9 9 8 7 7 7 7 7 8 7 7 7 6 6 5 3 8 8 7 6 8 8 6 10 13 10 13 10 6 6 6 7 6 6 6 4 5 7 8 8 8 8 9
8 8 8 7 7 8 7 7 7 7 8 8 8 6 5 5 5 5 5 8 7 9 7 7 8 11 10 9 8 5 7 7 6 6 6 8 10 6 6 6 8 7 9 9
9 8 8 7 8 8 8 7 7 8 8 8 7 5 4 5 5 5 5 6 4 9 5 5 6 10 14 7 6 6 6 5 5 6 8 9 8 4 6 6 6 7 8 7
8 8 7 8 7 6 8 7 7 8 8 7 7 5 3 3 4 4 5 5 5 7 9 4 6 9 8 7 6 6 5 6 7 8 8 8 7 6 4 5 6 7 9 7
8 6 6 6 4 6 7 8 6 7 6 6 6 5 4 3 3 3 2 1 7 6 8 8 7 7 8 8 9 7 8 8 7 7 8 8 6 4 1 4 8 6 7 8
6 3 7 6 6 6 6 5 6 6 5 4 4 5 4 3 2 4 2 6 7 8 8 7 7 6 7 10 7 7 7 7 6 7 8 6 6 4 5 6 6 7 8 8
Wind_Direction
306 304 222 191 172 187 230 327 276 43 341 148 155 152 147 133 128 123 110 99 97 90 84 60 45 31 21 8 354 344 336 334 336 331 323 317 310 305 299 297 293 297 298 295
133 34 199 179 172 203 218 224 245 294 103 129 146 134 148 144 141 127 116 109 105 89 62 44 36 4 353 347 333 329 329 331 332 326 322 317 316 316 313 305 299 294 295 297
177 6 322 212 166 180 123 198 319 228 90 143 160 166 159 152 145 135 122 121 108 52 17 15 1 354 342 341 344 339 338 332 333 328 323 321 317 314 311 312 312 306 302 301
167 355 246 43 188 292 33 13 144 110 134 158 161 157 149 142 142 138 117 115 99 358 345 343 354 1 349 347 344 337 335 338 333 329 322 322 322 321 318 313 314 311 310 305
13 320 250 244 195 180 195 147 174 124 140 146 139 142 152 139 135 134 128 102 14 3 353 2 14 359 351 340 341 340 342 335 331 329 325 324 323 326 323 325 318 313 316 324
186 232 225 236 139 139 197 173 159 154 156 155 165 200 147 160 158 154 147 61 350 3 9 20 9 356 344 348 341 347 337 334 334 336 328 325 333 332 320 324 322 323 311 308
210 242 123 120 158 168 217 87 155 159 159 159 185 39 113 150 156 142 84 68 46 22 21 17 7 353 350 344 353 340 341 337 332 328 330 322 321 321 321 323 316 308 318 319
230 227 208 154 151 256 85 139 146 150 158 158 116 129 137 146 141 150 132 80 27 13 11 10 10 355 344 354 345 342 336 333 332 334 330 330 325 323 330 316 310 325 339 335
343 38 86 136 55 115 138 138 143 144 153 145 141 144 144 144 154 140 113 56 10 4 1 4 12 357 349 352 343 335 334 342 338 337 337 335 339 335 329 340 353 351 345 338
222 103 101 126 122 135 137 134 139 133 138 145 135 136 145 148 147 149 71 22 11 3 2 9 358 356 358 355 345 337 340 335 337 351 336 349 335 338 344 354 355 353 346 342
101 130 148 163 152 141 132 129 120 118 121 125 134 144 150 146 145 107 58 26 13 12 19 1 352 11 4 358 350 344 346 353 345 352 350 344 342 347 344 355 354 347 356 342
271 157 221 157 161 154 144 134 130 127 124 126 151 145 153 134 108 72 44 22 21 16 15 358 13 13 9 3 357 351 344 5 340 350 360 348 346 340 4 354 334 359 349 347
348 146 116 145 150 150 135 130 127 126 126 133 115 124 165 132 102 123 58 36 26 20 14 13 16 18 8 5 1 1 355 2 336 25 351 351 353 351 345 350 0 15 359 350
134 129 127 145 150 137 130 120 121 110 105 104 114 127 131 138 150 64 45 35 30 27 19 19 13 19 4 5 359 1 359 22 355 15 356 350 354 0 1 354 352 354 4 359
173 221 153 129 134 132 131 135 136 126 127 120 116 124 155 151 76 74 58 34 37 40 29 20 7 17 359 358 354 1 17 11 347 6 25 353 359 4 17 2 6 1 357 2
164 127 136 140 134 133 136 136 132 127 125 121 143 105 96 96 96 82 60 39 8 47 30 13 358 3 352 356 355 10 21 61 339 3 6 1 3 359 8 3 20 19 18 10
149 147 142 137 135 137 136 121 108 121 134 114 101 110 123 99 119 64 68 82 85 59 18 346 358 4 345 7 2 13 11 15 356 4 12 7 360 8 2 2 6 11 23 35
149 143 137 133 135 135 135 129 127 134 106 105 120 144 121 112 83 73 90 97 102 322 331 2 8 359 351 18 350 7 9 12 12 13 2 9 358 6 9 2 7 9 10 37
130 118 118 119 124 127 133 125 114 109 122 127 113 94 90 92 98 116 127 192 250 257 88 339 92 255 360 59 325 338 11 5 10 17 11 349 5 10 19 6 4 11 12 15
119 117 117 116 117 119 122 119 120 120 114 108 108 147 122 122 135 160 241 286 314 348 347 340 326 303 315 154 257 304 11 352 357 6 21 347 14 358 8 17 7 11 14 12
128 128 125 124 116 115 116 135 130 133 120 120 138 116 139 131 55 339 294 323 37 19 313 290 269 294 293 259 274 319 355 339 5 353 357 358 344 356 1 3 5 3 3 6
135 134 127 128 123 124 126 129 129 130 132 128 122 124 113 101 114 98 64 12 17 5 313 325 19 7 333 320 286 283 321 321 331 345 352 335 324 340 347 350 352 356 1 355
135 133 130 134 137 122 128 124 133 133 129 135 128 121 92 70 51 53 59 44 11 2 333 30 3 331 313 265 274 339 306 337 319 321 315 305 301 321 337 345 337 346 348 347
130 133 129 132 130 138 134 140 135 132 133 132 127 137 169 139 116 72 104 125 65 323 348 36 352 313 305 317 324 317 319 335 309 298 291 282 299 321 327 312 327 342 334 330
133 132 140 146 157 143 137 145 145 139 150 139 146 156 146 64 33 46 14 23 135 321 330 120 246 285 310 337 353 357 344 23 3 346 340 327 337 356 339 19 331 301 299 340
147 152 144 167 140 144 149 169 158 158 170 172 171 182 185 159 133 255 345 24 336 334 342 342 352 340 340 349 334 351 322 341 336 342 322 324 334 316 347 258 271 312 330 323
141 132 143 153 155 156 156 166 157 163 200 214 203 187 218 210 125 286 255 346 350 346 343 334 329 360 335 330 333 340 341 345 300 326 328 344 342 305 286 294 330 335 336 345